Weather History for Monett, MO

Change the Weather History Date:

Wednesday, March 6, 2013

  Actual Average (KJLN) Record (KJLN)
Temperature  
Mean Temperature 32 °F 46 °F  
Max Temperature 42 °F 57 °F 82 °F (1974)
Min Temperature 23 °F 35 °F 13 °F (1989)
Degree Days  
Heating Degree Days 32 19  
Month to date heating degree days 121  
Since 1 July heating degree days 3375  
Cooling Degree Days 0 0  
Month to date cooling degree days 0  
Year to date cooling degree days 1  
Moisture  
Dew Point 22 °F    
Average Humidity 67    
Maximum Humidity 86    
Minimum Humidity 49    
Precipitation  
Precipitation 0.00 in 0.11 in 1.08 in (1973)
Month to date precipitation 0.62  
Year to date precipitation 4.97  
Snow  
Snow 0.00 in - - ()
Month to date snowfall  
Since 1 July snowfall  
Snow Depth -    
Sea Level Pressure  
Sea Level Pressure 30.31 in    
Wind  
Wind Speed 8 mph (North)    
Max Wind Speed 14 mph    
Max Gust Speed 18 mph    
Visibility 10 miles    
Events      
T = Trace of Precipitation, MM = Missing Value Source: NWS Daily Summary

Daily Weather History Graph

Daily Weather History Graph

Search for Another Location

Airport:

Trip Planner

Search our weather history database for the weather conditions in past years. The results will help you decide how hot, cold, wet, or windy it might be!

Date:

Astronomy

Mar. 06, 2013 Rise Set
Actual Time 6:39 AM CST 6:15 PM CST
Civil Twilight 6:13 AM CST 6:41 PM CST
Nautical Twilight 5:43 AM CST 7:11 PM CST
Astronomical Twilight 5:13 AM CST 7:41 PM CST
Moon 2:43 AM CST (3/6) 1:03 PM CST (3/6)
Length of Visible Light 12h 27m
Length of Day
11h 35m
Waning Crescent, 29% of the Moon is Illuminated
Mar 6
Waning Crescent
Mar 11
New
Mar 19
First Quarter
Mar 27
Full
Apr 2
Last Quarter

Hourly Weather History & Observations

Time (CST) Temp. Windchill Dew Point Humidity Pressure Visibility Wind Dir Wind Speed Gust Speed Precip Events Conditions
12:15 AM 30.2 °F 20.2 °F 19.4 °F 64% 30.29 in 10.0 mi NW 12.7 mph 17.3 mph N/A   Clear
12:35 AM 30.2 °F 19.8 °F 19.4 °F 64% 30.29 in 10.0 mi NW 13.8 mph 18.4 mph N/A   Clear
12:55 AM 28.4 °F 18.5 °F 19.4 °F 69% 30.29 in 10.0 mi NW 11.5 mph - N/A   Clear
1:15 AM 28.4 °F 18.0 °F 19.4 °F 69% 30.30 in 10.0 mi NW 12.7 mph - N/A   Clear
1:35 AM 28.4 °F 18.5 °F 19.4 °F 69% 30.30 in 10.0 mi NW 11.5 mph - N/A   Clear
1:55 AM 28.4 °F 18.5 °F 19.4 °F 69% 30.31 in 10.0 mi NNW 11.5 mph - N/A   Clear
2:15 AM 28.4 °F 19.1 °F 19.4 °F 69% 30.31 in 10.0 mi NNW 10.4 mph - N/A   Clear
2:35 AM 26.6 °F 16.8 °F 19.4 °F 74% 30.30 in 10.0 mi NNW 10.4 mph - N/A   Clear
2:55 AM 26.6 °F 16.2 °F 19.4 °F 74% 30.30 in 10.0 mi NNW 11.5 mph - N/A   Clear
3:15 AM 26.6 °F 16.8 °F 19.4 °F 74% 30.31 in 10.0 mi NNW 10.4 mph - N/A   Clear
3:35 AM 26.6 °F 16.8 °F 19.4 °F 74% 30.32 in 10.0 mi NNW 10.4 mph - N/A   Clear
3:55 AM 26.6 °F 17.5 °F 19.4 °F 74% 30.32 in 10.0 mi NNW 9.2 mph - N/A   Clear
4:15 AM 26.6 °F 20.0 °F 19.4 °F 74% 30.33 in 10.0 mi NW 5.8 mph - N/A   Clear
4:35 AM 24.8 °F 16.9 °F 19.4 °F 80% 30.34 in 10.0 mi NNW 6.9 mph - N/A   Clear
4:55 AM 24.8 °F 16.9 °F 19.4 °F 80% 30.34 in 10.0 mi NNW 6.9 mph - N/A   Clear
5:15 AM 24.8 °F 16.9 °F 19.4 °F 80% 30.35 in 10.0 mi NW 6.9 mph - N/A   Clear
5:35 AM 23.0 °F 15.8 °F 19.4 °F 86% 30.36 in 10.0 mi NW 5.8 mph - N/A   Clear
5:55 AM 23.0 °F 15.8 °F 19.4 °F 86% 30.36 in 10.0 mi NNW 5.8 mph - N/A   Clear
6:15 AM 23.0 °F 14.7 °F 19.4 °F 86% 30.37 in 10.0 mi NW 6.9 mph - N/A   Clear
6:35 AM 23.0 °F 17.0 °F 19.4 °F 86% 30.37 in 10.0 mi NNW 4.6 mph - N/A   Clear
6:55 AM 23.0 °F 17.0 °F 19.4 °F 86% 30.37 in 10.0 mi North 4.6 mph - N/A   Clear
7:15 AM 23.0 °F 17.0 °F 19.4 °F 86% 30.37 in 10.0 mi North 4.6 mph - N/A   Clear
7:35 AM 24.8 °F 16.1 °F 19.4 °F 80% 30.37 in 10.0 mi North 8.1 mph - N/A   Clear
8:15 AM 26.6 °F 18.2 °F 19.4 °F 74% 30.39 in 10.0 mi North 8.1 mph - N/A   Scattered Clouds
8:35 AM 26.6 °F 16.8 °F 19.4 °F 74% 30.39 in 10.0 mi North 10.4 mph 16.1 mph N/A   Scattered Clouds
8:55 AM 28.4 °F 19.7 °F 19.4 °F 69% 30.39 in 10.0 mi North 9.2 mph - N/A   Mostly Cloudy
9:15 AM 28.4 °F 19.1 °F 19.4 °F 69% 30.38 in 10.0 mi North 10.4 mph - N/A   Mostly Cloudy
9:35 AM 28.4 °F 19.7 °F 19.4 °F 69% 30.38 in 10.0 mi North 9.2 mph - N/A   Scattered Clouds
9:55 AM 30.2 °F 23.4 °F 21.2 °F 69% 30.37 in 10.0 mi NE 6.9 mph - N/A   Clear
10:15 AM 32.0 °F 27.5 °F 21.2 °F 64% 30.38 in 10.0 mi NE 4.6 mph - N/A   Clear
10:55 AM 32.0 °F 27.5 °F 21.2 °F 64% 30.38 in 10.0 mi North 4.6 mph - N/A   Clear
11:15 AM 32.0 °F 28.7 °F 21.2 °F 64% 30.38 in 10.0 mi NE 3.5 mph - N/A   Clear
11:35 AM 33.8 °F 29.6 °F 21.2 °F 60% 30.38 in 10.0 mi NW 4.6 mph - N/A   Clear
11:55 AM 33.8 °F 30.8 °F 23.0 °F 65% 30.37 in 10.0 mi WNW 3.5 mph - N/A   Clear
12:15 PM 35.6 °F - 23.0 °F 60% 30.37 in 10.0 mi Calm Calm - N/A   Clear
12:55 PM 37.4 °F - 21.2 °F 52% 30.35 in 10.0 mi Calm Calm - N/A   Clear
1:15 PM 37.4 °F 32.8 °F 21.2 °F 52% 30.34 in 10.0 mi North 5.8 mph - N/A   Clear
1:35 PM 39.2 °F 35.9 °F 23.0 °F 52% 30.33 in 10.0 mi North 4.6 mph - N/A   Clear
1:55 PM 39.2 °F - 23.0 °F 52% 30.32 in 10.0 mi Calm Calm - N/A   Clear
2:15 PM 41.0 °F 37.1 °F 24.8 °F 53% 30.32 in 10.0 mi NW 5.8 mph - N/A   Clear
2:35 PM 41.0 °F 38.0 °F 23.0 °F 49% 30.30 in 10.0 mi NW 4.6 mph - N/A   Clear
2:55 PM 41.0 °F 38.0 °F 24.8 °F 53% 30.30 in 10.0 mi North 4.6 mph - N/A   Clear
3:15 PM 42.8 °F 40.1 °F 24.8 °F 49% 30.30 in 10.0 mi NNW 4.6 mph - N/A   Clear
3:35 PM 41.0 °F 38.0 °F 23.0 °F 49% 30.29 in 10.0 mi West 4.6 mph - N/A   Clear
3:55 PM 41.0 °F 38.0 °F 23.0 °F 49% 30.29 in 10.0 mi North 4.6 mph - N/A   Clear
4:15 PM 41.0 °F - 23.0 °F 49% 30.28 in 10.0 mi Calm Calm - N/A   Clear
4:35 PM 41.0 °F - 23.0 °F 49% 30.28 in 10.0 mi Calm Calm - N/A   Clear
4:55 PM 41.0 °F - 23.0 °F 49% 30.29 in 10.0 mi Calm Calm - N/A   Clear
5:15 PM 41.0 °F - 24.8 °F 53% 30.28 in 10.0 mi Calm Calm - N/A   Clear
5:35 PM 41.0 °F - 24.8 °F 53% 30.27 in 10.0 mi Calm Calm - N/A   Clear
5:55 PM 39.2 °F - 26.6 °F 61% 30.27 in 10.0 mi Calm Calm - N/A   Clear
6:15 PM 37.4 °F 34.9 °F 26.6 °F 65% 30.26 in 10.0 mi NE 3.5 mph - N/A   Clear
6:35 PM 37.4 °F - 26.6 °F 65% 30.26 in 10.0 mi Calm Calm - N/A   Clear
6:55 PM 35.6 °F 32.8 °F 26.6 °F 70% 30.26 in 10.0 mi NNE 3.5 mph - N/A   Clear
7:15 PM 35.6 °F 31.7 °F 26.6 °F 70% 30.26 in 10.0 mi NE 4.6 mph - N/A   Clear
7:35 PM 35.6 °F 32.8 °F 26.6 °F 70% 30.26 in 10.0 mi ENE 3.5 mph - N/A   Clear
7:55 PM 33.8 °F 30.8 °F 26.6 °F 75% 30.26 in 10.0 mi NE 3.5 mph - N/A   Clear
8:15 PM 33.8 °F 29.6 °F 26.6 °F 75% 30.26 in 10.0 mi ENE 4.6 mph - N/A   Clear
8:35 PM 33.8 °F 28.6 °F 26.6 °F 75% 30.26 in 10.0 mi ENE 5.8 mph - N/A   Clear
8:55 PM 33.8 °F 29.6 °F 26.6 °F 75% 30.26 in 10.0 mi ENE 4.6 mph - N/A   Clear
9:15 PM 33.8 °F 29.6 °F 26.6 °F 75% 30.25 in 10.0 mi ENE 4.6 mph - N/A   Clear
9:35 PM 32.0 °F 27.5 °F 26.6 °F 80% 30.25 in 10.0 mi ENE 4.6 mph - N/A   Clear
9:55 PM 33.8 °F 28.6 °F 24.8 °F 70% 30.25 in 10.0 mi East 5.8 mph - N/A   Clear
10:15 PM 33.8 °F 28.6 °F 23.0 °F 65% 30.24 in 10.0 mi East 5.8 mph - N/A   Clear
10:35 PM 33.8 °F 28.6 °F 23.0 °F 65% 30.24 in 10.0 mi East 5.8 mph - N/A   Clear
10:55 PM 33.8 °F 30.8 °F 23.0 °F 65% 30.24 in 10.0 mi East 3.5 mph - N/A   Clear
11:15 PM 33.8 °F - 23.0 °F 65% 30.25 in 10.0 mi Calm Calm - N/A   Clear
11:35 PM 33.8 °F 27.7 °F 23.0 °F 65% 30.22 in 10.0 mi East 6.9 mph - N/A   Clear
11:55 PM 33.8 °F 28.6 °F 24.8 °F 70% 30.23 in 10.0 mi East 5.8 mph - N/A   Clear